This is the latest recevied weather packets stored in our database for station/object K7YVO. If no packets are shown the sender has not sent any weather packets the latest 10 day(s).
| Time | Temp. | Humidity | Pressure | Rain* | Wind** | Luminosity | Snow |
|---|---|---|---|---|---|---|---|
| 1777834334 | 26.67° C | 42% | 1013.3 hPa | 0 mm | - | 689 W/m² | - |
| 1777834030 | 26.11° C | 44% | 1013.5 hPa | 0 mm | - | 685 W/m² | - |
| 1777833726 | 26.11° C | 46% | 1013.3 hPa | 0 mm | - | 678 W/m² | - |
| 1777833422 | 25° C | 46% | 1013.3 hPa | 0 mm | - | 671 W/m² | - |
| 1777833120 | 25° C | 49% | 1013.5 hPa | 0 mm | - | 664 W/m² | - |
| 1777832818 | 24.44° C | 51% | 1013.5 hPa | 0 mm | - | 656 W/m² | - |
| 1777832516 | 23.89° C | 52% | 1013.6 hPa | 0 mm | - | 648 W/m² | - |
| 1777832213 | 23.89° C | 53% | 1013.7 hPa | 0 mm | - | 640 W/m² | - |
| 1777831910 | 23.33° C | 53% | 1013.8 hPa | 0 mm | - | 631 W/m² | - |
| 1777831606 | 23.33° C | 55% | 1013.7 hPa | 0 mm | - | 621 W/m² | - |
| 1777831305 | 22.78° C | 57% | 1013.8 hPa | 0 mm | - | 608 W/m² | - |
| 1777831001 | 23.33° C | 57% | 1013.6 hPa | 0 mm | - | 605 W/m² | - |
| 1777830698 | 22.78° C | 58% | 1013.9 hPa | 0 mm | - | 595 W/m² | - |
| 1777830394 | 22.78° C | 58% | 1013.7 hPa | 0 mm | - | 585 W/m² | - |
| 1777830092 | 22.78° C | 58% | 1013.7 hPa | 0 mm | - | 573 W/m² | - |
| 1777829786 | 22.22° C | 59% | 1013.7 hPa | 0 mm | - | 563 W/m² | - |
| 1777829483 | 21.67° C | 59% | 1014 hPa | 0 mm | - | 551 W/m² | - |
| 1777829180 | 21.67° C | 58% | 1013.9 hPa | 0 mm | - | 540 W/m² | - |
| 1777828878 | 21.11° C | 58% | 1013.9 hPa | 0 mm | - | 529 W/m² | - |
| 1777828574 | 21.11° C | 57% | 1013.8 hPa | 0 mm | - | 57 W/m² | - |
| 1777828271 | 20.56° C | 58% | 1013.9 hPa | 0 mm | - | 56 W/m² | - |
| 1777827968 | 20.56° C | 59% | 1014.1 hPa | 0 mm | - | 54 W/m² | - |
| 1777827665 | 20° C | 58% | 1013.9 hPa | 0 mm | - | 52 W/m² | - |
| 1777827362 | 19.44° C | 58% | 1014.1 hPa | 0 mm | - | 50 W/m² | - |
| 1777827058 | 20° C | 66% | 1014.1 hPa | 0 mm | - | 49 W/m² | - |
* Rain latest hour (hover to see other rain measurements)
** Current wind speed in m/s (hover to see current wind gust speed)